Weather in Innopolis

Russia / Republic of Tatarstan     55°45′07″N   48°44′40″E
temp.,
°C
wind,
m/s
gust,
m/s
humid.,
%
clouds,
%
prec.,
mm/h
press.,
hPa
HPBL,
m
28 february, sun
sun2800:00−18nnw369884 0.0 1006125
03:00−20nnw479886 0.0 1007137
06:00−21nw369890 0.0 1008113
09:00−18nnw489595 0.1 1009301
12:00−13nnw4792100 0.0 1010428
15:00−12nnw5890100 0.1 1012569
18:00−16nnw3495100 0.0 101448
21:00−19nnw339987 0.0 101626
1 march, mon
mon100:00−21nnw22990 0.0 101820
03:00−22nw22990 0.0 102020
06:00−23nw229935 0.0 102120
09:00−19wnw229526 0.0 1022117
12:00−15wnw238860 0.0 1021313
15:00−13w359279 0.0 1021290
18:00−16sw339630 0.0 101836
21:00−13sw499564 0.0 1017198
2 march, tue
tue200:00−10ssw61295100 0.1 1012327
03:00−7sw71495100 1.4 1008535
06:00−4sw71395100 1.3 1003538
09:000wsw71298100 2.9 1001589
12:000w61099100 0.9 999626
15:000w61010099 1.4 999640
18:00−3w5129291 0.4 999278
21:00−4w5119460 0.4 1000255
3 march, wed
wed300:00−3wnw5109591 0.2 1001401
03:00−7wnw5109688 0.3 1002226
06:00−10wnw489890 0.0 1003149
09:00−6nw499493 0.1 1004383
12:00−4nw6886100 0.1 1005811
15:00−3nw488483 0.1 1006711
18:00−6w499461 0.0 1007180
21:00−8wnw499577 0.1 1008177
4 march, thu
thu400:00−8w5109591 0.1 1008267
03:00−9wsw599590 0.1 1007232
06:00−9wsw5119591 0.1 1005286
09:00−7sw6119496 0.2 1003371
12:00−4sw81395100 0.4 999731
15:00−1sw101693100 1.8 9951079
18:00−1wsw101790100 1.0 9921107
21:00−1w101696100 1.6 993998